Station PCNT2 - 8773701 - Port O'Connor, Matagorda Bay, TX Image indicating link to RSS feed of recent meteorological observations for station PCNT2


Conditions at PCNT2 as of
(5:00 pm CDT)
2200 GMT on 04/17/2024:
     

Click on the graph icon in the table below to see a time series plot of the last five days of that observation.

5-day plot - Wind Direction Wind Direction (WDIR): NE ( 50 deg true )
5-day plot - Wind Speed Wind Speed (WSPD): 13.0 kts
5-day plot - Wind Gust Wind Gust (GST): 15.0 kts
5-day plot - Atmospheric Pressure Atmospheric Pressure (PRES):29.88 in
5-day plot - Pressure Tendency Pressure Tendency (PTDY):-0.05 in ( Falling )
5-day plot - Water Temperature Water Temperature (WTMP): 76.1 °F
5-day plot - Wind Speed at 10 Meters Wind Speed at 10 meters (WSPD10M): 13.6 kts
5-day plot - Wind Speed at 20 Meters Wind Speed at 20 meters (WSPD20M): 15.5 kts
5-day plot -  Wind Speed, Wind Gust and Atmospheric Pressure Combined plot of Wind Speed, Gust, and Air Pressure
Previous observations
TIME
(CDT)
5-day plot - Wind Direction
WDIR
 
5-day plot - Wind Speed
WSPD
kts
5-day plot - Wind Gust
GST
kts
5-day plot - Wave Height
WVHT
ft
5-day plot - Dominant Wave Period
DPD
sec
5-day plot - Average Wave Period
APD
sec
5-day plot - Mean Wave Direction
MWD
 
5-day plot - Atmospheric Pressure
PRES
in
5-day plot - Pressure Tendency
PTDY
in
5-day plot - Air Temperature
ATMP
°F
5-day plot - Water Temperature
WTMP
°F
5-day plot - Dew Point
DEWP
°F
5-day plot - Salinity
SAL
psu
5-day plot - Visibility
VIS
nmi
5-day plot - Tide (above MLLW)
TIDE
ft
2024-04-17 04:54 pm NE 13.0 15.0----29.89-- 76.1----
2024-04-17 04:48 pm NE 13.0 15.9----29.89- 74.3 76.1----
2024-04-17 04:42 pmENE 15.0 15.9----29.89- 74.3 76.1----
2024-04-17 04:36 pm NE 13.0 15.0----29.90- 74.5 76.1----
2024-04-17 04:30 pm NE 13.0 15.0----29.90- 74.5 76.1----
2024-04-17 04:24 pm NE 14.0 15.9----29.90- 74.5 76.1----
2024-04-17 04:18 pm NE 14.0 15.9----29.90- 74.5 76.1----
2024-04-17 04:12 pm NE 15.0 17.1----29.90- 74.7 76.1----
2024-04-17 04:06 pm NE 14.0 15.0----29.90- 74.8 76.1----
2024-04-17 04:00 pm NE 14.0 15.0----29.91-0.04 74.8 76.1----
2024-04-17 03:54 pmENE 14.0 15.0----29.91- 75.0 76.1----
2024-04-17 03:48 pmENE 13.0 15.0----29.91- 75.2 76.1----
2024-04-17 03:42 pmENE 13.0 15.0----29.91- 75.4 75.9----
2024-04-17 03:36 pmENE 13.0 15.0----29.92- 75.2 75.9----
2024-04-17 03:30 pmENE 14.0 15.9----29.92- 75.4 75.9----
2024-04-17 03:24 pmENE 15.0 15.9----29.91- 75.2 75.9----
2024-04-17 03:18 pmENE 14.0 15.0----29.91- 75.2 75.9----
2024-04-17 03:12 pmENE 14.0 15.9----29.91- 75.2 76.1----
2024-04-17 03:06 pmENE 14.0 15.9----29.92- 75.2 76.1----
2024-04-17 03:00 pmENE 13.0 15.0----29.92-0.03 75.4 76.3----
2024-04-17 02:54 pmENE 14.0 15.9----29.92- 75.2 76.3----
2024-04-17 02:48 pmENE 14.0 15.0----29.92- 75.2 76.3----
2024-04-17 02:42 pmENE 13.0 15.0----29.93- 75.2 76.3----
2024-04-17 02:36 pmENE 13.0 15.0----29.93- 75.4 76.3----
2024-04-17 02:30 pmENE 12.0 15.0----29.93- 75.4 76.1----
2024-04-17 02:24 pmENE 13.0 15.0----29.93- 75.4 76.1----
2024-04-17 02:18 pmENE 13.0 14.0----29.93- 75.2 76.3----
2024-04-17 02:12 pmENE 13.0 14.0----29.93- 75.2 76.1----
2024-04-17 02:06 pmENE 11.1 13.0----29.93- 75.4 76.1----
2024-04-17 02:00 pmENE 12.0 13.0----29.94-0.01 75.4 76.1----
2024-04-17 01:54 pmENE 11.1 13.0----29.94- 75.2 76.1----
2024-04-17 01:48 pmENE 11.1 13.0----29.94- 75.2 75.9----
2024-04-17 01:42 pmENE 12.0 14.0----29.94- 75.2 75.9----
2024-04-17 01:36 pmENE 12.0 14.0----29.94- 75.2 75.9----
2024-04-17 01:30 pmENE 12.0 14.0----29.94- 75.2 75.9----
2024-04-17 01:24 pmENE 12.0 13.0----29.94- 75.4 75.7----
2024-04-17 01:18 pmENE 12.0 12.0----29.95- 75.2 75.7----
2024-04-17 01:12 pmENE 11.1 13.0----29.95- 75.4 75.7----
2024-04-17 01:06 pmENE 12.0 13.0----29.95- 75.6 75.6----
2024-04-17 01:00 pmENE 12.0 14.0----29.95+0.02 75.6 75.6----
2024-04-17 12:54 pmENE 12.0 13.0----29.95- 75.6 75.6----
2024-04-17 12:48 pmENE 11.1 13.0----29.96- 75.4 75.6----
2024-04-17 12:42 pmENE 11.1 12.0----29.96- 75.0 75.6----
2024-04-17 12:36 pmENE 11.1 12.0----29.96- 75.0 75.6----
2024-04-17 12:30 pmENE 11.1 13.0----29.96- 74.8 75.4----
2024-04-17 12:24 pmENE 12.0 14.0----29.96- 74.8 75.6----
2024-04-17 12:18 pmENE 12.0 15.0----29.95- 74.7 75.4----
2024-04-17 12:12 pmENE 12.0 14.0----29.96- 74.7 75.4----
2024-04-17 12:06 pm NE 11.1 14.0----29.96- 74.7 75.4----
2024-04-17 12:00 pm NE 12.0 14.0----29.95+0.02 74.5 75.4----
2024-04-17 11:54 am NE 12.0 14.0----29.95- 74.3 75.4----
2024-04-17 11:48 am NE 13.0 15.0----29.95- 74.1 75.4----
2024-04-17 11:42 am NE 13.0 15.9----29.95- 74.3 75.4----
2024-04-17 11:36 am NE 14.0 15.9----29.94- 74.1 75.4----
2024-04-17 11:30 am NE 13.0 14.0----29.95- 73.9 75.4----
2024-04-17 11:24 am NE 13.0 15.0----29.95- 73.9 75.4----
2024-04-17 11:18 amENE 12.0 14.0----29.95- 74.1 75.4----
2024-04-17 11:12 am NE 12.0 13.0----29.96- 73.9 75.4----
2024-04-17 11:06 am NE 11.1 13.0----29.96- 73.9 75.4----
2024-04-17 11:00 am NE 13.0 15.9----29.95+0.02 73.9 75.4----
2024-04-17 10:54 am NE 13.0 14.0----29.95- 73.8 75.4----
2024-04-17 10:48 am NE 11.1 13.0----29.96- 73.9 75.4----
2024-04-17 10:42 am NE 12.0 14.0----29.95- 73.8 75.4----
2024-04-17 10:36 am NE 9.9 14.0----29.96- 73.8 75.4----
2024-04-17 10:30 am NE 13.0 15.0----29.94- 73.8 75.4----
2024-04-17 10:24 amNNE 8.0 17.1----29.96- 73.6 75.2----
2024-04-17 10:18 am NE 17.1 22.0----29.92- 73.6 75.2----
2024-04-17 10:12 amENE 17.1 19.0----29.91- 73.6 75.2----
2024-04-17 10:06 amENE 13.0 17.1----29.93- 73.8 75.2----
2024-04-17 10:00 am NE 14.0 15.9----29.93+0.02 73.6 75.2----
2024-04-17 09:54 am NE 9.9 12.0----29.94- 73.8 75.2----
2024-04-17 09:48 am NE 11.1 12.0----29.94- 73.8 75.2----
2024-04-17 09:42 am NE 11.1 13.0----29.94- 73.8 75.2----
2024-04-17 09:36 am NE 11.1 12.0----29.94- 73.6 75.2----
2024-04-17 09:30 am NE 11.1 12.0----29.94- 73.6 75.2----
2024-04-17 09:24 am NE 7.0 15.9----29.95- 73.8 75.2----
2024-04-17 09:18 amENE 15.0 17.1----29.92- 73.8 75.2----
2024-04-17 09:12 amENE 15.0 17.1----29.92- 73.8 75.2----
2024-04-17 09:06 amENE 14.0 15.0----29.92- 73.8 75.2----
2024-04-17 09:00 amENE 12.0 13.0----29.93+0.04 73.9 75.2----
2024-04-17 08:54 amENE 11.1 12.0----29.94- 73.8 75.2----
2024-04-17 08:48 amENE 9.9 11.1----29.93- 73.8 75.2----
2024-04-17 08:42 am NE 8.0 9.9----29.94- 73.8 75.2----
2024-04-17 08:36 am NE 8.9 9.9----29.93- 73.9 75.2----
2024-04-17 08:30 am NE 8.0 11.1----29.93- 73.8 75.2----
2024-04-17 08:24 am NE 8.9 9.9----29.93- 73.8 75.2----
2024-04-17 08:18 am NE 8.9 9.9----29.93- 73.8 75.2----
2024-04-17 08:12 am NE 8.0 8.9----29.93- 73.8 75.2----
2024-04-17 08:06 am NE 8.0 8.9----29.93- 73.9 75.2----
2024-04-17 08:00 am NE 7.0 8.9----29.93+0.06 73.9 75.2----
2024-04-17 07:54 amENE 8.0 8.9----29.92- 73.9 75.2----
2024-04-17 07:48 amENE 8.0 8.9----29.92- 73.9 75.2----
2024-04-17 07:42 am NE 6.0 7.0----29.93- 73.9 75.2----
2024-04-17 07:36 amENE 8.0 8.9----29.93- 73.9 75.2----
2024-04-17 07:30 amENE 5.1 6.0----29.93- 73.9 75.2----
2024-04-17 07:24 amENE 6.0 7.0----29.92- 74.1 75.2----
2024-04-17 07:18 amENE 5.1 5.1----29.92- 73.9 75.2----
2024-04-17 07:12 amENE 5.1 6.0----29.92- 73.9 75.2----
2024-04-17 07:06 am NE 5.1 8.0----29.91- 73.8 75.2----
2024-04-17 07:00 amENE 7.0 8.9----29.91+0.02 73.9 75.2----
2024-04-17 06:54 am NE 6.0 7.0----29.91- 73.9 75.2----
2024-04-17 06:48 am NE 6.0 7.0----29.91- 74.1 75.2----
2024-04-17 06:42 am NE 5.1 6.0----29.91- 73.9 75.2----
2024-04-17 06:36 am NE 5.1 8.0----29.91- 73.9 75.2----
2024-04-17 06:30 amENE 8.0 8.0----29.90- 73.9 75.2----
2024-04-17 06:24 am NE 5.1 7.0----29.90- 74.1 75.2----
2024-04-17 06:18 am NE 7.0 8.0----29.89- 73.9 75.2----
2024-04-17 06:12 amENE 6.0 8.9----29.89- 73.9 75.2----
2024-04-17 06:06 amENE 7.0 8.0----29.88- 74.1 75.2----
2024-04-17 06:00 am NE 5.1 6.0----29.89+0.02 73.9 75.2----
2024-04-17 05:54 amNNE 4.1 6.0----29.89- 74.1 75.2----
2024-04-17 05:48 amENE 6.0 7.0----29.88- 74.3 75.2----
2024-04-17 05:42 am NE 4.1 6.0----29.89- 74.3 75.2----
2024-04-17 05:36 amENE 5.1 7.0----29.88- 74.3 75.2----
2024-04-17 05:30 amENE 6.0 7.0----29.88- 74.3 75.2----
2024-04-17 05:24 amENE 6.0 9.9----29.87- 74.5 75.2----
2024-04-17 05:18 am E 9.9 12.0----29.86- 74.5 75.2----
2024-04-17 05:12 am E 9.9 11.1----29.86- 74.5 75.2----
2024-04-17 05:06 am E 7.0 8.0----29.87- 74.5 75.2----
2024-04-17 05:00 am E 6.0 8.0----29.87+0.00 74.5 75.2----
2024-04-17 04:54 am E 7.0 8.9----29.87- 74.3 75.2----
2024-04-17 04:48 amESE 6.0 8.9----29.88- 74.3 75.2----
2024-04-17 04:42 amESE 8.0 8.9----29.87- 74.3 75.2----
2024-04-17 04:36 amESE 8.0 8.9----29.87- 74.3 75.2----
2024-04-17 04:30 amESE 6.0 7.0----29.88- 74.3 75.2----
2024-04-17 04:24 am SE 5.1 6.0----29.88- 74.3 75.2----
2024-04-17 04:18 am SE 4.1 5.1----29.88- 74.3 75.2----
2024-04-17 04:12 amSSE 5.1 6.0----29.89- 74.1 75.2----
2024-04-17 04:06 am SE 5.1 8.0----29.88- 74.1 75.2----
2024-04-17 04:00 amSSE 6.0 8.9----29.88+0.01 74.1 75.2----
2024-04-17 03:54 am SE 8.0 9.9----29.88- 74.1 75.2----
2024-04-17 03:48 am SE 8.0 9.9----29.88- 74.1 75.2----
2024-04-17 03:42 am SE 8.9 11.1----29.87- 74.1 75.2----
2024-04-17 03:36 amESE 8.0 11.1----29.87- 74.1 75.2----
2024-04-17 03:30 amESE 11.1 13.0----29.86- 74.1 75.2----
2024-04-17 03:24 amESE 12.0 14.0----29.85- 74.1 75.2----
2024-04-17 03:18 amESE 11.1 12.0----29.86- 74.1 75.2----
2024-04-17 03:12 amESE 11.1 12.0----29.86- 74.1 75.2----
2024-04-17 03:06 amESE 12.0 14.0----29.87- 74.1 75.2----
2024-04-17 03:00 amESE 13.0 14.0----29.87-0.01 74.1 75.2----
2024-04-17 02:54 amESE 12.0 14.0----29.87- 74.1 75.2----
2024-04-17 02:48 amESE 11.1 13.0----29.87- 74.1 75.2----
2024-04-17 02:42 amESE 11.1 12.0----29.87- 74.1 75.2----
2024-04-17 02:36 amESE 8.0 12.0----29.87- 74.3 75.2----
2024-04-17 02:30 amESE 9.9 13.0----29.87- 74.3 75.2----
2024-04-17 02:24 amESE 11.1 13.0----29.87- 74.3 75.2----
2024-04-17 02:18 amESE 12.0 14.0----29.88- 74.3 75.2----
2024-04-17 02:12 amESE 11.1 14.0----29.87- 74.3 75.2----
2024-04-17 02:06 amESE 13.0 15.0----29.87- 74.3 75.2----
2024-04-17 02:00 amESE 12.0 15.0----29.87-0.01 74.3 75.2----
2024-04-17 01:54 amESE 14.0 15.9----29.88- 74.3 75.2----
2024-04-17 01:48 am SE 13.0 15.0----29.88- 74.5 75.2----
2024-04-17 01:42 am SE 13.0 15.0----29.88- 74.3 75.2----
2024-04-17 01:36 amESE 14.0 15.9----29.88- 74.3 75.2----
2024-04-17 01:30 amESE 14.0 17.1----29.88- 74.3 75.2----
2024-04-17 01:24 amESE 15.0 17.1----29.87- 74.3 75.2----
2024-04-17 01:18 amESE 14.0 17.1----29.88- 74.3 75.2----
2024-04-17 01:12 amESE 15.0 17.1----29.88- 74.3 75.2----
2024-04-17 01:06 amESE 15.0 18.1----29.88- 74.3 75.2----
2024-04-17 01:00 amESE 15.0 19.0----29.88+0.00 74.3 75.2----
2024-04-17 12:54 amESE 15.9 19.0----29.88- 74.3 75.2----
2024-04-17 12:48 amESE 15.9 19.0----29.88- 74.3 75.2----
2024-04-17 12:42 amESE 15.9 21.0----29.87- 74.3 75.2----
2024-04-17 12:36 amESE 19.0 22.0----29.87- 74.3 75.2----
2024-04-17 12:30 amESE 18.1 19.0----29.87- 74.3 75.2----
2024-04-17 12:24 amESE 18.1 19.0----29.88- 74.3 75.2----
2024-04-17 12:18 amESE 15.0 19.0----29.87- 74.3 75.2----
2024-04-17 12:12 amESE 15.9 19.0----29.87- 74.3 75.2----
2024-04-17 12:06 amESE 15.0 19.0----29.88- 74.3 75.2----
2024-04-17 12:00 amESE 15.9 19.0----29.88+0.02 74.3 75.2----
2024-04-16 11:54 pmESE 17.1 20.0----29.87- 74.3 75.2----
2024-04-16 11:48 pmESE 17.1 19.0----29.87- 74.3 75.2----
2024-04-16 11:42 pmESE 15.9 20.0----29.87- 74.3 75.2----
2024-04-16 11:36 pmESE 15.9 19.0----29.88- 74.3 75.2----
2024-04-16 11:30 pmESE 15.9 19.0----29.88- 74.3 75.2----
2024-04-16 11:24 pmESE 15.0 17.1----29.88- 74.3 75.2----
2024-04-16 11:18 pmESE 14.0 15.9----29.88- 74.3 75.2----
2024-04-16 11:12 pmESE 15.0 17.1----29.88- 74.1 75.2----
2024-04-16 11:06 pmESE 14.0 15.9----29.88- 74.1 75.2----
2024-04-16 11:00 pmESE 14.0 15.9----29.88+0.06 74.1 75.2----
2024-04-16 10:54 pmESE 14.0 15.9----29.88- 74.1 75.2----
2024-04-16 10:48 pmESE 14.0 15.9----29.88- 74.1 75.2----
2024-04-16 10:42 pmESE 13.0 17.1----29.88- 74.1 75.2----
2024-04-16 10:36 pm E 14.0 15.9----29.87- 74.1 75.2----
2024-04-16 10:30 pmESE 14.0 17.1----29.87- 74.1 75.2----
2024-04-16 10:24 pmESE 13.0 15.9----29.88- 74.1 75.2----
2024-04-16 10:18 pm E 13.0 15.0----29.88- 73.9 75.2----
2024-04-16 10:12 pm E 14.0 15.9----29.88- 73.9 75.2----
2024-04-16 10:06 pm E 13.0 17.1----29.88- 74.1 75.2----
2024-04-16 10:00 pm E 14.0 15.9----29.87+0.05 74.1 75.2----
2024-04-16 09:54 pm E 14.0 17.1----29.86- 74.1 75.2----
2024-04-16 09:48 pm E 14.0 15.9----29.86- 74.1 75.2----
2024-04-16 09:42 pm E 13.0 17.1----29.86- 74.1 75.2----
2024-04-16 09:36 pm E 14.0 15.9----29.86- 74.1 75.2----
2024-04-16 09:30 pm E 13.0 15.9----29.86- 74.1 75.2----
2024-04-16 09:24 pm E 14.0 15.0----29.86- 74.1 75.2----
2024-04-16 09:18 pm E 13.0 17.1----29.86- 74.1 75.2----
2024-04-16 09:12 pm E 14.0 17.1----29.86- 73.9 75.2----
2024-04-16 09:06 pm E 15.0 15.9----29.85- 74.1 75.4----
2024-04-16 09:00 pm E 14.0 17.1----29.85+0.04 73.9 75.4----
2024-04-16 08:54 pm E 14.0 17.1----29.85- 73.9 75.4----
2024-04-16 08:48 pm E 15.0 17.1----29.85- 73.9 75.4----
2024-04-16 08:42 pm E 15.9 19.0----29.84- 73.9 75.4----
2024-04-16 08:36 pm E 15.0 19.0----29.84- 73.9 75.4----
2024-04-16 08:30 pm E 15.9 19.0----29.83- 73.8 75.4----
2024-04-16 08:24 pm E 17.1 20.0----29.83- 73.8 75.4----
2024-04-16 08:18 pm E 17.1 19.0----29.83- 73.8 75.4----
2024-04-16 08:12 pm E 15.9 20.0----29.83- 73.8 75.4----
2024-04-16 08:06 pm E 17.1 20.0----29.83- 73.6 75.4----
2024-04-16 08:00 pm E 17.1 20.0----29.82-0.01 73.8 75.4----
2024-04-16 07:54 pm E 17.1 18.1----29.83- 73.6 75.4----
2024-04-16 07:48 pm E 15.9 19.0----29.83- 73.8 75.4----
2024-04-16 07:42 pm E 15.9 20.0----29.83- 73.6 75.6----
2024-04-16 07:36 pm E 17.1 20.0----29.83- 73.8 75.6----
2024-04-16 07:30 pm E 18.1 21.0----29.83- 73.8 75.6----
2024-04-16 07:24 pm E 15.9 19.0----29.83- 73.8 75.6----
2024-04-16 07:18 pm E 17.1 19.0----29.83- 73.8 75.6----
2024-04-16 07:12 pmENE 17.1 19.0----29.82- 73.8 75.6----
2024-04-16 07:06 pmENE 17.1 21.0----29.82- 73.9 75.6----
2024-04-16 07:00 pmENE 18.1 21.0----29.82-0.03 73.9 75.6----
2024-04-16 06:54 pmENE 15.0 18.1----29.82- 73.9 75.6----
2024-04-16 06:48 pmENE 17.1 19.0----29.82- 73.9 75.6----
2024-04-16 06:42 pmENE 15.9 19.0----29.82- 74.1 75.6----
2024-04-16 06:36 pmENE 15.9 19.0----29.82- 74.3 75.6----
2024-04-16 06:30 pmENE 15.9 18.1----29.82- 74.3 75.6----
2024-04-16 06:24 pmENE 17.1 19.0----29.82- 74.3 75.6----
2024-04-16 06:18 pmENE 15.9 19.0----29.82- 74.5 75.6----
2024-04-16 06:12 pmENE 17.1 19.0----29.82- 74.5 75.6----
2024-04-16 06:00 pmENE 17.1 20.0----29.82-0.05 74.7-----
2024-04-16 05:54 pmENE 17.1 21.0----29.81- 74.5-----
2024-04-16 05:48 pmENE 19.0 21.0----29.81- 74.7 75.6----
2024-04-16 05:42 pmENE 19.0 21.0----29.81- 74.7 75.4----
2024-04-16 05:36 pmENE 19.0 21.0----29.82- 74.7 75.4----
2024-04-16 05:30 pmENE 19.0 22.0----29.82-- 75.4----
2024-04-16 05:24 pmENE 20.0 22.0----29.82-- 75.4----
2024-04-16 05:18 pmENE 19.0 22.0----29.82-- 75.4----
2024-04-16 05:12 pmENE 17.1 19.0----29.82-- 75.6----
2024-04-16 05:06 pmENE 18.1 20.0----29.83-- 75.6----
2024-04-16 05:00 pmENE 17.1 19.0----29.83-0.05 74.8 75.6----
2024-04-16 04:54 pm E 17.1 19.0----29.83- 75.0 75.6----